Regional Weather Roundup
Issued by NWS Cleveland, OH

Home | Current Version | Previous Version | Text Only | Print | Product List | Glossary Off
Versions: 1 2 3 4 5 6 7 8 9 10 11 12 13 14 15 16 17 18 19 20 21 22 23 24 25 26 27 28 29 30 31 32 33 34 35 36 37 38 39 40 41 42 43 44 45 46 47 48 49 50

000
ASUS41 KCLE 230502
RWRCLE
OHIO REGIONAL WEATHER ROUNDUP
NATIONAL WEATHER SERVICE CLEVELAND, OH
100 AM EDT TUE MAY 23 2017

NOTE: "FAIR" INDICATES FEW OR NO CLOUDS BELOW 12,000 FEET WITH NO
SIGNIFICANT WEATHER AND/OR OBSTRUCTIONS TO VISIBILITY.

OHZ001>008-015>018-024>027-034-035-043-044-230600-
   NORTHWEST OHIO

CITY           SKY/WX    TMP DP  RH WIND       PRES   REMARKS
DEFIANCE       CLOUDY    55  47  74 S3        29.96F
FINDLAY        CLOUDY    57  47  69 S7        29.97F
TOLEDO EXPRESS PTCLDY    54  49  83 S5        29.96S
TOLEDO EXEC    CLOUDY    56  49  77 S5        29.97S
LIMA           PTCLDY    55  49  80 S7        29.99S
$$

OHZ009>014-019>023-028>033-038-089-230600-
   NORTHEAST OHIO

CITY           SKY/WX    TMP DP  RH WIND       PRES   REMARKS
CLE-HOPKINS    CLOUDY    57  48  72 S8        30.01S
CLE-LAKEFRONT  PTCLDY    59  47  64 S8        29.98S
CUY CO. ARPT   NOT AVBL
LORAIN-ELYRIA  CLOUDY    55  45  68 SW6       30.00S
ASHTABULA      CLEAR     53  48  83 S3        30.01S
AKRON-CANTON   CLOUDY    54  45  71 S6        30.02S
WOOSTER        CLOUDY    53  47  79 S5        30.02S
MANSFIELD      CLOUDY    53  48  83 S3        30.01F
YOUNGSTOWN     MOCLDY    53  45  74 S7        30.03S
$$

OHZ042-051>053-060>062-070>072-077>081-230600-
  SOUTHWEST OHIO

CITY           SKY/WX    TMP DP  RH WIND       PRES   REMARKS
CINC-COVINGTON CLOUDY    58  46  64 CALM      29.99F
CINC-LUNKEN    PTCLDY    51  51 100 CALM      30.00F
HAMILTON       PTCLDY    53  52  96 CALM      30.00F
DAYTON         CLOUDY    57  45  64 S5        30.00F
WRIGHT-PAT AFB CLOUDY    56  50  80 CALM      30.00F
DAYTON GENERAL CLOUDY    57  45  64 SE7       29.99F
WILMINGTON     CLOUDY    55  47  74 SE3       30.00F
$$

OHZ036-037-039>041-045>050-054>059-063>069-073>076-082>088-230600-
  CENTRAL AND SOUTHEAST OHIO

CITY           SKY/WX    TMP DP  RH WIND       PRES   REMARKS
COLUMBUS       CLOUDY    55  48  77 SE3       30.00F
OSU AIRPORT    CLOUDY    58  48  69 S3        30.00F
BOLTON FIELD   NOT AVBL
RICKENBACK AFB PTCLDY    53  49  89 SE3       30.00F
NEWARK         CLOUDY    51  49  92 CALM      30.01F
MARION         CLOUDY    54  47  77 S7        30.01S
LANCASTER      CLOUDY    54  49  83 CALM      30.01F
ZANESVILLE     CLOUDY    52  49  89 CALM      30.02F
NEW PHILLY     NOT AVBL
$$



USA.gov is the U.S. government's official web portal to all federal, state and local government web resources and services.